Weather reports worldwide

Advertisment
Neum, Bosnia/Herzegovina (14657): temperature & dewpoint: 23.07.2017 13:00:00 - 29.07.2017 13:00:00 (CEST)Neum, Bosnia/Herzegovina (14657): wind speed: 23.07.2017 13:00:00 - 29.07.2017 13:00:00 (CEST)Neum, Bosnia/Herzegovina (14657): wind direction: 23.07.2017 13:00:00 - 29.07.2017 13:00:00 (CEST)Neum, Bosnia/Herzegovina (14657): reduced air pressure: 23.07.2017 13:00:00 - 29.07.2017 13:00:00 (CEST)
Date & Time tt [°C] td [°C] ff [km/h] ff [kn] dd ppp [hPa]
29.07.2017 13:00:00 30,3 15,6 4 2 W 1015,5
29.07.2017 12:00:00 29,1 14,5 0 0 W 1015,8
29.07.2017 11:00:00 26,4 12,1 0 0 N 1016,0
29.07.2017 10:00:00 26,0 11,8 0 0 W 1015,8
29.07.2017 09:00:00 24,8 10,7 0 0 WNW 1015,8
29.07.2017 08:00:00 24,0 10,0 4 2 NE 1015,5
29.07.2017 07:00:00 22,9 9,0 0 0 W 1015,0
29.07.2017 06:00:00 22,6 8,7 4 2 NNE 1014,8
29.07.2017 05:00:00 22,5 8,6 0 0 N 1014,5
29.07.2017 04:00:00 22,8 8,9 0 0 E 1014,3
29.07.2017 03:00:00 23,2 9,2 0 0 NE 1014,1
29.07.2017 02:00:00 23,6 9,6 4 2 E 1014,1
29.07.2017 01:00:00 23,7 9,7 4 2 ENE 1013,7
29.07.2017 00:00:00 23,7 9,7 0 0 NE 1013,5
28.07.2017 23:00:00 24,4 10,4 0 0 NNW 1013,2
28.07.2017 22:00:00 25,1 10,9 4 2 ENE 1012,9
28.07.2017 21:00:00 25,7 11,5 0 0 S 1012,2
28.07.2017 20:00:00 26,8 12,5 4 2 W 1011,9
28.07.2017 19:00:00 28,5 15,5 7 4 WNW 1011,2
28.07.2017 18:00:00 29,4 14,7 7 4 WNW 1011,2
28.07.2017 17:00:00 28,2 15,6 4 2 WNW 1011,4
28.07.2017 16:00:00 28,7 15,5 7 4 WNW 1011,4
28.07.2017 15:00:00 28,7 13,7 4 2 WNW 1011,4
28.07.2017 14:00:00 29,0 13,0 4 2 WNW 1011,5
28.07.2017 13:00:00 28,8 12,0 4 2 WNW 1011,5
28.07.2017 12:00:00 28,7 12,5 4 2 W 1011,4
28.07.2017 11:00:00 26,0 15,7 4 2 WSW 1011,6
28.07.2017 10:00:00 25,3 12,4 4 2 WSW 1011,4
28.07.2017 09:00:00 24,4 12,1 4 2 WNW 1011,4
28.07.2017 08:00:00 23,1 11,5 4 2 NNW 1010,9
28.07.2017 07:00:00 22,1 11,4 7 4 N 1010,9
28.07.2017 06:00:00 21,8 10,9 7 4 N 1010,4
28.07.2017 05:00:00 22,4 10,4 7 4 N 1010,1
28.07.2017 04:00:00 22,8 10,9 4 2 NE 1009,7
28.07.2017 03:00:00 22,4 11,7 4 2 NE 1009,7
28.07.2017 02:00:00 22,9 13,4 4 2 NW 1009,7
28.07.2017 01:00:00 23,5 12,4 4 2 NNW 1009,4
28.07.2017 00:00:00 24,4 14,4 4 2 N 1009,3
27.07.2017 23:00:00 24,5 15,6 4 2 NNE 1009,0
27.07.2017 22:00:00 25,4 15,7 4 2 N 1008,3
27.07.2017 21:00:00 25,6 18,7 7 4 SW 1008,2
27.07.2017 20:00:00 26,9 14,1 4 2 W 1007,6
27.07.2017 19:00:00 28,2 13,0 4 2 W 1006,9
27.07.2017 18:00:00 27,3 14,5 4 2 W 1006,7
27.07.2017 17:00:00 25,9 17,9 4 2 W 1007,1
27.07.2017 16:00:00 26,5 18,2 4 2 W 1007,0
27.07.2017 15:00:00 28,3 13,7 7 4 WNW 1006,8
27.07.2017 14:00:00 27,3 13,7 4 2 W 1007,1
27.07.2017 13:00:00 28,1 12,0 4 2 W 1007,2
27.07.2017 12:00:00 28,4 10,7 4 2 N 1007,2
27.07.2017 11:00:00 26,8 12,7 7 4 WNW 1007,5
27.07.2017 10:00:00 - - - - - -
27.07.2017 09:00:00 23,3 14,0 4 2 WSW 1007,4
27.07.2017 08:00:00 21,7 15,0 4 2 N 1007,1
27.07.2017 07:00:00 20,7 15,0 11 6 N 1006,5
27.07.2017 06:00:00 20,0 15,4 7 4 N 1006,1
27.07.2017 05:00:00 20,6 14,9 11 6 N 1005,8
27.07.2017 04:00:00 20,8 14,9 7 4 NNE 1005,7
27.07.2017 03:00:00 21,1 15,2 7 4 N 1005,7
27.07.2017 02:00:00 22,4 18,0 4 2 N 1005,3
27.07.2017 01:00:00 23,0 16,8 4 2 NNW 1005,4
27.07.2017 00:00:00 22,7 17,0 4 2 NE 1005,2
26.07.2017 23:00:00 23,5 16,5 4 2 NNE 1005,0
26.07.2017 22:00:00 24,2 16,2 4 2 NE 1004,7
26.07.2017 21:00:00 25,1 15,9 4 2 NNE 1004,1
26.07.2017 20:00:00 26,1 16,3 4 2 W 1003,2
26.07.2017 19:00:00 26,7 16,7 4 2 WNW 1003,0
26.07.2017 18:00:00 26,0 19,5 4 2 W 1002,7
26.07.2017 17:00:00 26,9 17,9 4 2 WNW 1002,6
26.07.2017 16:00:00 26,5 19,5 4 2 WNW 1003,0
26.07.2017 15:00:00 26,1 20,8 4 2 WNW 1003,0
26.07.2017 14:00:00 26,0 18,8 4 2 W 1003,3
26.07.2017 13:00:00 25,8 18,1 4 2 W 1003,5
26.07.2017 12:00:00 25,2 18,5 4 2 W 1003,5
26.07.2017 11:00:00 24,5 17,1 4 2 W 1003,6
26.07.2017 10:00:00 23,4 16,8 4 2 WSW 1003,3
26.07.2017 09:00:00 22,2 16,9 4 2 NW 1003,2
26.07.2017 08:00:00 20,8 16,8 7 4 N 1003,2
26.07.2017 07:00:00 20,4 16,2 7 4 N 1002,9
26.07.2017 06:00:00 19,6 16,3 11 6 N 1002,9
26.07.2017 05:00:00 19,9 16,1 7 4 NNE 1002,7
26.07.2017 04:00:00 20,1 16,3 11 6 N 1002,5
26.07.2017 03:00:00 20,8 16,3 7 4 N 1003,2
26.07.2017 02:00:00 20,4 18,1 7 4 NNW 1003,8
26.07.2017 01:00:00 22,8 18,1 0 0 WSW 1003,4
26.07.2017 00:00:00 22,9 18,8 4 2 W 1002,4
25.07.2017 23:00:00 24,3 19,9 0 0 W 1002,5
25.07.2017 22:00:00 24,6 20,3 7 4 SW 1002,7
25.07.2017 21:00:00 24,8 20,5 4 2 W 1002,8
25.07.2017 20:00:00 25,3 20,2 4 2 WNW 1002,2
25.07.2017 19:00:00 26,5 18,3 4 2 WNW 1001,7
25.07.2017 18:00:00 26,4 18,9 4 2 W 1001,4
25.07.2017 17:00:00 26,9 19,2 7 4 WNW 1001,8
25.07.2017 16:00:00 27,9 18,6 7 4 WNW 1001,4
25.07.2017 15:00:00 27,8 17,6 7 4 WNW 1001,5
25.07.2017 14:00:00 27,8 17,2 7 4 WNW 1002,2
25.07.2017 13:00:00 28,2 16,6 4 2 WNW 1002,3
25.07.2017 12:00:00 26,5 15,3 0 0 W 1002,4
25.07.2017 11:00:00 25,6 19,4 7 4 SW 1002,6
25.07.2017 10:00:00 23,7 18,9 4 2 SSW 1002,4
25.07.2017 09:00:00 22,2 18,6 11 6 N 1002,1
25.07.2017 08:00:00 22,8 18,5 7 4 NNE 1002,3
25.07.2017 07:00:00 21,0 18,0 14 8 N 1001,8
25.07.2017 06:00:00 21,5 18,2 7 4 N 1001,0
25.07.2017 05:00:00 21,4 18,4 7 4 N 1001,1
25.07.2017 04:00:00 21,6 17,2 14 8 N 1000,4
25.07.2017 03:00:00 22,8 17,2 14 8 N 999,9
25.07.2017 02:00:00 27,7 24,0 4 2 E 999,9
25.07.2017 01:00:00 28,1 24,4 4 2 ESE 999,9
25.07.2017 00:00:00 28,7 25,0 4 2 ESE 1000,6
24.07.2017 23:00:00 29,6 25,8 4 2 SE 1000,7
24.07.2017 22:00:00 30,5 26,7 7 4 E 1000,9
24.07.2017 21:00:00 29,8 26,0 4 2 E 1000,6
24.07.2017 20:00:00 30,3 26,5 4 2 ESE 1001,1
24.07.2017 19:00:00 31,9 28,1 4 2 ENE 1001,6
24.07.2017 18:00:00 33,6 29,7 4 2 ENE 1002,1
24.07.2017 17:00:00 33,6 29,8 4 2 ESE 1002,9
24.07.2017 16:00:00 33,0 29,1 4 2 E 1004,1
24.07.2017 15:00:00 33,2 29,3 4 2 E 1005,2
24.07.2017 14:00:00 35,9 32,0 4 2 E 1005,0
24.07.2017 13:00:00 34,9 31,0 4 2 SE 1005,5
24.07.2017 12:00:00 32,0 28,2 4 2 N 1006,9
24.07.2017 11:00:00 29,0 25,3 0 0 WSW 1008,4
24.07.2017 10:00:00 27,6 23,9 0 0 N 1008,5
24.07.2017 09:00:00 26,7 23,0 0 0 WNW 1008,9
24.07.2017 08:00:00 25,8 22,2 4 2 SW 1008,8
24.07.2017 07:00:00 23,8 20,2 0 0 SE 1009,5
24.07.2017 06:00:00 23,2 19,6 0 0 WNW 1009,5
24.07.2017 05:00:00 23,0 19,4 0 0 ESE 1009,5
24.07.2017 04:00:00 23,6 19,3 0 0 NW 1009,5
24.07.2017 03:00:00 23,5 19,1 0 0 N 1009,9
24.07.2017 02:00:00 23,7 19,3 0 0 SSE 1010,2
24.07.2017 01:00:00 24,1 18,6 0 0 N 1010,8
24.07.2017 00:00:00 24,8 19,5 0 0 N 1011,0
23.07.2017 23:00:00 25,8 19,2 4 2 E 1011,4
23.07.2017 22:00:00 26,4 20,9 0 0 E 1011,4
23.07.2017 21:00:00 27,5 21,3 4 2 SSW 1011,3
23.07.2017 20:00:00 29,5 18,3 4 2 NW 1011,0
23.07.2017 19:00:00 30,3 18,8 4 2 W 1011,0
23.07.2017 18:00:00 29,4 19,7 4 2 WNW 1011,4
23.07.2017 17:00:00 31,1 16,7 7 4 WNW 1011,6
23.07.2017 16:00:00 31,6 16,0 7 4 WNW 1011,8
23.07.2017 15:00:00 31,1 16,5 4 2 WNW 1012,1
23.07.2017 14:00:00 32,1 17,2 7 4 WNW 1011,9
23.07.2017 13:00:00 31,7 15,1 4 2 W 1012,1

tt = temperature
td = dewpoint
ff = wind speed
dd = wind direction
ppp = reduced air pressure

Next stations